This is the latest recevied weather packets stored in our database for station/object KC3WWU. If no packets are shown the sender has not sent any weather packets the latest 10 day(s).
| Time | Temp. | Humidity | Pressure | Rain* | Wind** | Luminosity | Snow |
|---|---|---|---|---|---|---|---|
| 1777467387 | 11.11° C | 99% | 1009.7 hPa | 0 mm | - | 58 W/m² | - |
| 1777467083 | 11.11° C | 99% | 1009.6 hPa | 0 mm | - | 50 W/m² | - |
| 1777466781 | 11.11° C | 99% | 1009.6 hPa | 0 mm | - | 49 W/m² | - |
| 1777466479 | 11.11° C | 99% | 1009.7 hPa | 0 mm | - | 54 W/m² | - |
| 1777466175 | 11.11° C | 99% | 1009.7 hPa | 0 mm | - | 52 W/m² | - |
| 1777465871 | 11.11° C | 99% | 1009.7 hPa | 0 mm | - | 47 W/m² | - |
| 1777465568 | 11.11° C | 99% | 1009.6 hPa | 0 mm | - | 39 W/m² | - |
| 1777465262 | 10.56° C | 99% | 1009.7 hPa | 0 mm | - | 38 W/m² | - |
| 1777464957 | 10.56° C | 99% | 1009.7 hPa | 0 mm | - | 40 W/m² | - |
| 1777464652 | 10.56° C | 99% | 1009.9 hPa | 0 mm | - | 34 W/m² | - |
| 1777464349 | 10.56° C | 99% | 1009.6 hPa | 0 mm | - | 44 W/m² | - |
| 1777464044 | 10.56° C | 99% | 1009.8 hPa | 0 mm | - | 42 W/m² | - |
| 1777463739 | 10.56° C | 99% | 1009.9 hPa | 0 mm | - | 43 W/m² | - |
| 1777463434 | 10.56° C | 99% | 1010 hPa | 0 mm | - | 45 W/m² | - |
| 1777463130 | 10.56° C | 99% | 1009.9 hPa | 0 mm | - | 42 W/m² | - |
| 1777462826 | 10.56° C | 99% | 1009.8 hPa | 0 mm | - | 43 W/m² | - |
| 1777462521 | 10.56° C | 99% | 1009.8 hPa | 0 mm | - | 37 W/m² | - |
| 1777462218 | 10° C | 99% | 1009.9 hPa | 0 mm | - | 40 W/m² | - |
| 1777461915 | 10° C | 99% | 1010 hPa | 0 mm | - | 35 W/m² | - |
| 1777461612 | 10° C | 99% | 1010.2 hPa | 0 mm | - | 29 W/m² | - |
| 1777461307 | 10° C | 99% | 1009.9 hPa | 0 mm | - | 22 W/m² | - |
| 1777461003 | 10° C | 99% | 1009.8 hPa | 0 mm | - | 21 W/m² | - |
| 1777460698 | 10° C | 99% | 1009.9 hPa | 0 mm | - | 19 W/m² | - |
| 1777460394 | 9.44° C | 99% | 1010 hPa | 0 mm | - | 16 W/m² | - |
| 1777460090 | 9.44° C | 99% | 1009.8 hPa | 0 mm | - | 13 W/m² | - |
* Rain latest hour (hover to see other rain measurements)
** Current wind speed in m/s (hover to see current wind gust speed)